Location: Unspecified
(49.2170°N, 0.0000°E)
Time: 22:58:04
(UTC+00:00)

Courier 1B Rocket - Pass Details

Date: 21 January 2021
Orbit: 920 x 1202 km, 28.2° (Epoch: 08 March)

Event Time Altitude Azimuth Distance (km) Brightness Sun altitude
Rises 10:36:14 0° 237° (WSW) 3,951 8.3 17.8°
Reaches altitude 10° 10:40:44 10° 213° (SSW) 3,046 8.2 18.1°
Maximum altitude 10:44:04 13° 186° (S) 2,825 8.8 18.3°
Drops below altitude 10° 10:47:26 10° 160° (SSE) 3,103 10.2 18.5°
Sets 10:52:07 0° 136° (SE) 4,087 9.4 18.8°
